Date String (YYYY-MM-DD hh:mm:ss) UTC,Instrument flags,Ambient pressure (hPa),Sample flow (lpm),Bypass flow (lpm),Sample temperature (°C),Ambient temperature (°C),ASC tube jacket temperature (°C),LED temperature (°C),Box temperature (°C),Sample RH (%),Span deviation,Mass concentration (μg/m³),Mass concentration (μg/m³),Mass concentration (μg/m³)
DateTimeUTC,F1_M11,P_M11,Q1_M11,Q2_M11,T1_M11,T2_M11,T3_M11,T4_M11,T5_M11,U1_M11,ZSPAN_M11,X0_M11,X2_M11,X1_M11
2022-07-29 07:00:00,,0830.6,4.99,0.00,30.2,28.7,00.0,38.9,31.9,34.8,0000.0,0009.66,0007.10,0006.71
2022-07-29 07:01:00,,0830.6,5.00,0.00,30.2,28.8,00.0,38.9,31.9,34.8,0000.0,0009.62,0007.09,0006.71
2022-07-29 07:02:00,,0830.6,5.00,0.00,30.2,28.8,00.0,39.0,31.9,34.7,0000.0,0009.59,0007.12,0006.74
2022-07-29 07:03:00,,0830.6,5.00,0.00,30.2,28.8,00.0,39.0,31.9,34.7,0000.0,0010.01,0007.12,0006.76
2022-07-29 07:04:00,,0830.6,5.00,0.00,30.2,28.9,00.0,39.0,32.0,34.6,0000.0,0010.68,0007.20,0006.79
2022-07-29 07:05:00,,0830.6,5.01,0.00,30.2,28.9,00.0,39.0,32.0,34.6,0000.0,0011.06,0007.26,0006.84
2022-07-29 07:06:00,,0830.6,5.00,0.00,30.2,28.9,00.0,39.0,32.0,34.5,0000.0,0011.17,0007.35,0006.91
2022-07-29 07:07:00,,0830.7,5.01,0.00,30.2,28.9,00.0,39.0,32.0,34.2,0000.0,0011.33,0007.42,0006.96
2022-07-29 07:08:00,,0830.6,5.00,0.00,30.2,29.0,00.0,39.0,32.0,34.2,0000.0,0011.75,0007.50,0007.01
2022-07-29 07:09:00,,0830.7,4.99,0.00,30.2,29.0,00.0,39.0,32.0,34.3,0000.0,0011.80,0007.54,0007.04
2022-07-29 07:10:00,,0830.7,5.01,0.00,30.2,29.0,00.0,39.0,32.0,34.2,0000.0,0011.86,0007.55,0007.06
2022-07-29 07:11:00,,0830.7,5.00,0.00,30.2,29.0,00.0,39.0,32.1,34.0,0000.0,0011.88,0007.56,0007.07
2022-07-29 07:12:00,,0830.6,5.00,0.00,30.3,29.1,00.0,39.0,32.1,33.8,0000.0,0012.07,0007.60,0007.09
2022-07-29 07:13:00,,0830.6,5.00,0.00,30.3,29.1,00.0,39.0,32.1,33.7,0000.0,0012.18,0007.62,0007.10
2022-07-29 07:14:00,,0830.6,5.00,0.00,30.3,29.1,00.0,39.0,32.1,33.7,0000.0,0011.75,0007.64,0007.11
2022-07-29 07:15:00,,0830.6,4.99,0.00,30.3,28.9,00.0,39.0,32.1,33.6,0000.0,0011.38,0007.65,0007.11
2022-07-29 07:16:00,,0830.6,5.00,0.00,30.3,28.2,00.0,39.0,31.9,33.6,0000.0,0011.76,0007.67,0007.10
2022-07-29 07:17:00,,0830.6,5.01,0.00,30.2,27.8,00.0,39.0,31.8,34.0,0000.0,0011.83,0007.64,0007.07
2022-07-29 07:18:00,,0830.6,4.99,0.00,30.1,27.6,00.0,38.9,31.7,33.9,0000.0,0011.73,0007.60,0007.06
2022-07-29 07:19:00,,0830.6,5.01,0.00,30.0,27.7,00.0,38.9,31.6,33.9,0001.0,0011.49,0007.61,0007.07
2022-07-29 07:20:00,,0830.6,4.99,0.00,30.0,27.7,00.0,38.9,31.6,33.9,0000.8,0011.47,0007.63,0007.06
2022-07-29 07:21:00,,0830.6,5.00,0.00,29.9,27.9,00.0,38.8,31.6,34.0,0000.8,0011.50,0007.65,0007.05
2022-07-29 07:22:00,,0830.6,5.00,0.00,29.9,28.0,00.0,38.8,31.6,34.1,0000.9,0011.58,0007.66,0007.05
2022-07-29 07:23:00,,0830.6,5.01,0.00,29.9,28.1,00.0,38.8,31.6,34.4,0000.5,0011.39,0007.63,0007.04
2022-07-29 07:24:00,,0830.6,5.00,0.00,29.9,28.2,00.0,38.8,31.7,34.6,0000.0,0011.35,0007.64,0007.05
2022-07-29 07:25:00,,0830.6,5.00,0.00,29.9,28.3,00.0,38.8,31.7,34.7,0000.0,0011.38,0007.64,0007.07
2022-07-29 07:26:00,,0830.6,5.00,0.00,29.9,28.4,00.0,38.8,31.7,34.7,0000.8,0011.48,0007.60,0007.06
2022-07-29 07:27:00,,0830.6,4.99,0.00,29.9,28.5,00.0,38.8,31.7,34.2,0000.6,0010.84,0007.57,0007.04
2022-07-29 07:28:00,,0830.5,5.01,0.00,29.9,28.5,00.0,38.8,31.7,33.9,0000.8,0010.76,0007.55,0007.01
2022-07-29 07:29:00,,0830.6,5.00,0.00,29.9,28.6,00.0,38.8,31.7,34.3,0000.6,0010.77,0007.56,0007.00
2022-07-29 07:30:00,,0830.6,5.00,0.00,29.9,28.6,00.0,38.8,31.8,34.3,0000.2,0010.63,0007.51,0006.96
2022-07-29 07:31:00,,0830.6,5.00,0.00,29.9,28.7,00.0,38.8,31.8,34.5,0000.0,0010.48,0007.42,0006.91
2022-07-29 07:32:00,,0830.6,5.00,0.00,30.0,28.7,00.0,38.8,31.8,34.6,0000.0,0010.31,0007.34,0006.86
2022-07-29 07:33:00,,0830.6,5.00,0.00,30.0,28.8,00.0,38.8,31.8,34.6,0000.6,0010.09,0007.24,0006.80
2022-07-29 07:34:00,,0830.6,4.99,0.00,30.0,28.8,00.0,38.8,31.9,34.3,0000.9,0010.04,0007.19,0006.76
2022-07-29 07:35:00,,0830.6,5.00,0.00,30.0,28.9,00.0,38.8,31.9,34.1,0000.9,0009.98,0007.12,0006.70
2022-07-29 07:36:00,,0830.7,5.00,0.00,30.0,28.9,00.0,38.8,31.9,34.2,0001.0,0009.92,0007.08,0006.64
2022-07-29 07:37:00,,0830.6,5.01,0.00,30.0,28.9,00.0,38.8,31.9,34.2,0000.3,0009.54,0007.03,0006.61
2022-07-29 07:38:00,,0830.6,4.99,0.00,30.0,29.0,00.0,38.8,31.9,34.3,0000.4,0009.73,0007.01,0006.59
2022-07-29 07:39:00,,0830.6,4.99,0.00,30.1,29.0,00.0,38.8,32.0,34.2,0000.2,0009.71,0006.99,0006.58
2022-07-29 07:40:00,,0830.6,5.00,0.00,30.1,29.0,00.0,38.9,32.0,34.3,0000.0,0009.67,0006.94,0006.54
2022-07-29 07:41:00,,0830.6,5.00,0.00,30.1,29.0,00.0,38.9,32.0,34.3,-000.6,0009.61,0006.89,0006.51
2022-07-29 07:42:00,,0830.6,5.00,0.00,30.1,29.1,00.0,38.9,32.0,34.0,-001.2,0009.76,0006.94,0006.52
2022-07-29 07:43:00,,0830.6,5.00,0.00,30.1,29.1,00.0,38.9,32.0,34.0,-001.7,0009.89,0007.00,0006.54
2022-07-29 07:44:00,,0830.6,5.00,0.00,30.1,29.1,00.0,38.9,32.0,34.0,-001.6,0009.92,0007.03,0006.56
2022-07-29 07:45:00,,0830.6,5.00,0.00,30.2,29.1,00.0,38.9,32.1,33.9,-001.3,0009.98,0007.07,0006.60
2022-07-29 07:46:00,,0830.6,5.00,0.00,30.2,29.2,00.0,38.9,32.1,33.8,-000.8,0010.25,0007.06,0006.62
2022-07-29 07:47:00,,0830.5,4.99,0.00,30.2,29.2,00.0,39.0,32.1,33.9,0000.0,0010.28,0007.06,0006.64
2022-07-29 07:48:00,,0830.6,5.01,0.00,30.2,28.7,00.0,38.9,32.0,33.9,-000.8,0010.46,0007.10,0006.65
2022-07-29 07:49:00,,0830.5,4.99,0.00,30.1,28.0,00.0,38.9,31.9,34.3,-001.3,0010.42,0007.12,0006.67
2022-07-29 07:50:00,,0830.5,5.01,0.00,30.1,27.7,00.0,38.9,31.7,34.7,-000.4,0010.40,0007.14,0006.70
2022-07-29 07:51:00,,0830.5,5.01,0.00,30.0,27.7,00.0,38.8,31.6,34.3,0000.0,0010.57,0007.15,0006.72
2022-07-29 07:52:00,,0830.6,4.99,0.00,29.9,27.7,00.0,38.8,31.6,34.3,-000.3,0010.59,0007.17,0006.75
2022-07-29 07:53:00,,0830.5,4.99,0.00,29.9,27.9,00.0,38.8,31.6,34.3,0000.0,0010.73,0007.21,0006.79
2022-07-29 07:54:00,,0830.5,5.00,0.00,29.9,28.0,00.0,38.8,31.7,34.3,0000.0,0010.81,0007.18,0006.81
2022-07-29 07:55:00,,0830.5,5.00,0.00,29.9,28.1,00.0,38.8,31.7,34.4,0000.0,0010.81,0007.19,0006.81
2022-07-29 07:56:00,,0830.5,4.99,0.00,29.9,28.2,00.0,38.7,31.7,34.7,0000.0,0010.79,0007.20,0006.82
2022-07-29 07:57:00,,0830.5,5.00,0.00,29.9,28.3,00.0,38.7,31.7,34.9,-000.0,0010.49,0007.21,0006.82
2022-07-29 07:58:00,,0830.5,5.01,0.00,29.9,28.4,00.0,38.7,31.8,34.9,0000.3,0010.33,0007.20,0006.81
2022-07-29 07:59:00,,0830.5,5.00,0.00,30.0,28.5,00.0,38.7,31.9,34.3,-000.1,0010.25,0007.18,0006.81
